Time,TemperatureF,DewpointF,PressureIn,WindDirection,WindDirectionDegrees,WindSpeedMPH,WindSpeedGustMPH,Humidity,HourlyPrecipIn,Conditions,Clouds,dailyrainin,SoftwareType,DateUTC
2013-10-30 00:00:00,35.1,24.1,30.31,West,269,0.0,0.0,64,0.00,,,0.00,VWS V14.01,2013-10-30 04:00:00,
2013-10-30 00:01:00,34.0,24.5,30.31,West,269,0.0,0.0,68,0.00,,,0.00,VWS V14.01,2013-10-30 04:01:00,
2013-10-30 00:03:00,34.0,24.5,30.31,West,269,0.0,0.0,68,0.00,,,0.00,VWS V14.01,2013-10-30 04:03:00,
2013-10-30 00:05:00,35.1,24.1,30.31,West,269,0.0,0.0,64,0.00,,,0.00,VWS V14.01,2013-10-30 04:05:00,
2013-10-30 00:08:00,34.0,24.5,30.31,West,269,0.0,0.0,68,0.00,,,0.00,VWS V14.01,2013-10-30 04:08:00,
2013-10-30 00:10:00,35.1,24.5,30.31,West,269,0.0,0.0,65,0.00,,,0.00,VWS V14.01,2013-10-30 04:10:00,
2013-10-30 00:13:00,33.8,24.4,30.31,West,269,0.0,0.0,68,0.00,,,0.00,VWS V14.01,2013-10-30 04:13:00,
2013-10-30 00:15:00,34.9,24.3,30.31,West,269,0.0,0.0,65,0.00,,,0.00,VWS V14.01,2013-10-30 04:15:00,
2013-10-30 00:18:00,33.8,24.7,30.31,West,269,0.0,0.0,69,0.00,,,0.00,VWS V14.01,2013-10-30 04:18:00,
2013-10-30 00:20:00,34.7,24.1,30.31,West,269,0.0,0.0,65,0.00,,,0.00,VWS V14.01,2013-10-30 04:20:00,
2013-10-30 00:23:00,33.8,24.7,30.28,West,269,0.0,0.0,69,0.00,,,0.00,VWS V14.01,2013-10-30 04:23:00,
2013-10-30 00:25:00,34.5,24.4,30.31,West,269,0.0,0.0,66,0.00,,,0.00,VWS V14.01,2013-10-30 04:25:00,
2013-10-30 00:28:00,33.8,24.7,30.28,West,269,0.0,0.0,69,0.00,,,0.00,VWS V14.01,2013-10-30 04:28:00,
2013-10-30 00:30:00,34.5,24.4,30.31,West,269,0.0,0.0,66,0.00,,,0.00,VWS V14.01,2013-10-30 04:30:00,
2013-10-30 00:34:00,33.8,24.7,30.28,West,269,0.0,0.0,69,0.00,,,0.00,VWS V14.01,2013-10-30 04:34:00,
2013-10-30 00:35:00,34.3,24.2,30.31,West,269,0.0,0.0,66,0.00,,,0.00,VWS V14.01,2013-10-30 04:35:00,
2013-10-30 00:39:00,33.4,24.7,30.28,West,269,0.0,0.0,70,0.00,,,0.00,VWS V14.01,2013-10-30 04:39:00,
2013-10-30 00:40:00,34.3,24.5,30.31,West,269,0.0,0.0,67,0.00,,,0.00,VWS V14.01,2013-10-30 04:40:00,
2013-10-30 00:44:00,33.4,24.7,30.28,West,269,0.0,0.0,70,0.00,,,0.00,VWS V14.01,2013-10-30 04:44:00,
2013-10-30 00:45:00,34.3,24.5,30.31,West,269,0.0,0.0,67,0.00,,,0.00,VWS V14.01,2013-10-30 04:45:00,
2013-10-30 00:49:00,33.4,24.7,30.28,West,269,0.0,0.0,70,0.00,,,0.00,VWS V14.01,2013-10-30 04:49:00,
2013-10-30 00:50:00,34.2,24.4,30.31,West,269,0.0,0.0,67,0.00,,,0.00,VWS V14.01,2013-10-30 04:50:00,
2013-10-30 00:54:00,33.3,24.9,30.28,West,269,0.0,0.0,71,0.00,,,0.00,VWS V14.01,2013-10-30 04:54:00,
2013-10-30 00:55:00,34.0,24.2,30.31,West,269,0.0,0.0,67,0.00,,,0.00,VWS V14.01,2013-10-30 04:55:00,
2013-10-30 00:59:00,33.3,24.9,30.28,West,269,0.0,0.0,71,0.00,,,0.00,VWS V14.01,2013-10-30 04:59:00,
2013-10-30 01:00:00,34.0,24.5,30.31,West,269,0.0,0.0,68,0.00,,,0.00,VWS V14.01,2013-10-30 05:00:00,
2013-10-30 01:04:00,33.1,24.7,30.28,West,269,0.0,0.0,71,0.00,,,0.00,VWS V14.01,2013-10-30 05:04:00,
2013-10-30 01:05:00,34.0,24.5,30.31,West,269,0.0,0.0,68,0.00,,,0.00,VWS V14.01,2013-10-30 05:05:00,
2013-10-30 01:09:00,33.1,24.7,30.28,West,269,0.0,0.0,71,0.00,,,0.00,VWS V14.01,2013-10-30 05:09:00,
2013-10-30 01:10:00,34.0,24.5,30.31,West,269,0.0,0.0,68,0.00,,,0.00,VWS V14.01,2013-10-30 05:10:00,
2013-10-30 01:14:00,33.3,25.2,30.28,West,269,0.0,0.0,72,0.00,,,0.00,VWS V14.01,2013-10-30 05:14:00,
2013-10-30 01:15:00,33.8,24.4,30.31,West,269,0.0,0.0,68,0.00,,,0.00,VWS V14.01,2013-10-30 05:15:00,
2013-10-30 01:19:00,33.1,25.0,30.28,West,269,0.0,0.0,72,0.00,,,0.00,VWS V14.01,2013-10-30 05:19:00,
2013-10-30 01:20:00,33.8,24.7,30.31,West,269,0.0,0.0,69,0.00,,,0.00,VWS V14.01,2013-10-30 05:20:00,
2013-10-30 01:24:00,33.1,25.0,30.28,West,269,0.0,0.0,72,0.00,,,0.00,VWS V14.01,2013-10-30 05:24:00,
2013-10-30 01:25:00,34.0,24.9,30.28,West,269,0.0,0.0,69,0.00,,,0.00,VWS V14.01,2013-10-30 05:25:00,
2013-10-30 01:29:00,33.1,25.0,30.28,West,269,0.0,0.0,72,0.00,,,0.00,VWS V14.01,2013-10-30 05:29:00,
2013-10-30 01:30:00,33.8,24.7,30.28,West,269,0.0,0.0,69,0.00,,,0.00,VWS V14.01,2013-10-30 05:30:00,
2013-10-30 01:34:00,33.1,25.0,30.28,West,269,0.0,0.0,72,0.00,,,0.00,VWS V14.01,2013-10-30 05:34:00,
2013-10-30 01:35:00,33.6,24.9,30.28,West,269,0.0,0.0,70,0.00,,,0.00,VWS V14.01,2013-10-30 05:35:00,
2013-10-30 01:39:00,33.1,25.0,30.28,West,269,0.0,0.0,72,0.00,,,0.00,VWS V14.01,2013-10-30 05:39:00,
2013-10-30 01:40:00,33.4,24.7,30.28,West,269,0.0,0.0,70,0.00,,,0.00,VWS V14.01,2013-10-30 05:40:00,
2013-10-30 01:44:00,33.1,25.4,30.28,West,269,0.0,0.0,73,0.00,,,0.00,VWS V14.01,2013-10-30 05:44:00,
2013-10-30 01:45:00,33.4,24.7,30.28,West,269,0.0,0.0,70,0.00,,,0.00,VWS V14.01,2013-10-30 05:45:00,
2013-10-30 01:49:00,33.3,25.6,30.28,West,269,0.0,0.0,73,0.00,,,0.00,VWS V14.01,2013-10-30 05:49:00,
2013-10-30 01:50:00,33.4,24.7,30.28,West,269,0.0,0.0,70,0.00,,,0.00,VWS V14.01,2013-10-30 05:50:00,
2013-10-30 01:54:00,33.3,25.6,30.28,West,269,0.0,0.0,73,0.00,,,0.00,VWS V14.01,2013-10-30 05:54:00,
2013-10-30 01:55:00,33.3,24.9,30.28,West,269,0.0,0.0,71,0.00,,,0.00,VWS V14.01,2013-10-30 05:55:00,
2013-10-30 01:59:00,33.6,25.9,30.28,West,269,0.0,0.0,73,0.00,,,0.00,VWS V14.01,2013-10-30 05:59:00,
2013-10-30 02:00:00,33.1,24.7,30.28,West,269,0.0,0.0,71,0.00,,,0.00,VWS V14.01,2013-10-30 06:00:00,
2013-10-30 02:04:00,33.6,26.2,30.28,West,269,0.0,0.0,74,0.00,,,0.00,VWS V14.01,2013-10-30 06:04:00,
2013-10-30 02:05:00,33.1,24.7,30.28,West,269,0.0,0.0,71,0.00,,,0.00,VWS V14.01,2013-10-30 06:05:00,
2013-10-30 02:10:00,33.4,26.1,30.28,West,269,0.0,0.0,74,0.00,,,0.00,VWS V14.01,2013-10-30 06:10:00,
2013-10-30 02:15:00,33.4,26.1,30.28,West,269,0.0,0.0,74,0.00,,,0.00,VWS V14.01,2013-10-30 06:15:00,
2013-10-30 02:20:00,33.6,26.2,30.28,West,269,0.0,0.0,74,0.00,,,0.00,VWS V14.01,2013-10-30 06:20:00,
2013-10-30 02:25:00,33.6,26.2,30.28,West,269,0.0,0.0,74,0.00,,,0.00,VWS V14.01,2013-10-30 06:25:00,
2013-10-30 02:30:00,33.6,26.2,30.28,West,269,0.0,0.0,74,0.00,,,0.00,VWS V14.01,2013-10-30 06:30:00,
2013-10-30 02:35:00,33.8,26.4,30.28,West,269,0.0,0.0,74,0.00,,,0.00,VWS V14.01,2013-10-30 06:35:00,
2013-10-30 02:40:00,34.2,26.8,30.28,West,269,0.0,0.0,74,0.00,,,0.00,VWS V14.01,2013-10-30 06:40:00,
2013-10-30 02:45:00,34.2,26.8,30.28,West,269,0.0,0.0,74,0.00,,,0.00,VWS V14.01,2013-10-30 06:45:00,
2013-10-30 02:50:00,34.2,26.8,30.28,West,269,0.0,0.0,74,0.00,,,0.00,VWS V14.01,2013-10-30 06:50:00,
2013-10-30 02:55:00,34.2,27.1,30.28,West,269,0.0,0.0,75,0.00,,,0.00,VWS V14.01,2013-10-30 06:55:00,
2013-10-30 03:00:00,34.3,27.2,30.28,West,269,0.0,0.0,75,0.00,,,0.00,VWS V14.01,2013-10-30 07:00:00,
2013-10-30 03:05:00,34.3,27.2,30.28,West,269,0.0,0.0,75,0.00,,,0.00,VWS V14.01,2013-10-30 07:05:00,
2013-10-30 03:10:00,34.5,27.4,30.28,West,269,0.0,0.0,75,0.00,,,0.00,VWS V14.01,2013-10-30 07:10:00,
2013-10-30 03:15:00,34.7,27.6,30.28,West,269,0.0,0.0,75,0.00,,,0.00,VWS V14.01,2013-10-30 07:15:00,
2013-10-30 03:20:00,34.7,27.6,30.28,West,269,0.0,0.0,75,0.00,,,0.00,VWS V14.01,2013-10-30 07:20:00,
2013-10-30 03:25:00,34.9,27.8,30.28,West,269,0.0,0.0,75,0.00,,,0.00,VWS V14.01,2013-10-30 07:25:00,
2013-10-30 03:30:00,35.2,28.1,30.28,West,269,0.0,0.0,75,0.00,,,0.00,VWS V14.01,2013-10-30 07:30:00,
2013-10-30 03:35:00,35.2,28.1,30.28,West,269,0.0,0.0,75,0.00,,,0.00,VWS V14.01,2013-10-30 07:35:00,
2013-10-30 03:40:00,35.2,28.1,30.25,West,269,0.0,0.0,75,0.00,,,0.00,VWS V14.01,2013-10-30 07:40:00,
2013-10-30 03:45:00,35.4,28.3,30.25,West,269,0.0,0.0,75,0.00,,,0.00,VWS V14.01,2013-10-30 07:45:00,
2013-10-30 03:50:00,35.4,28.3,30.25,West,269,0.0,0.0,75,0.00,,,0.00,VWS V14.01,2013-10-30 07:50:00,
2013-10-30 03:55:00,35.4,28.3,30.25,West,269,0.0,0.0,75,0.00,,,0.00,VWS V14.01,2013-10-30 07:55:00,
2013-10-30 04:00:00,35.6,28.5,30.25,West,269,0.0,0.0,75,0.00,,,0.00,VWS V14.01,2013-10-30 08:00:00,
2013-10-30 04:05:00,35.4,28.3,30.25,West,269,0.0,0.0,75,0.00,,,0.00,VWS V14.01,2013-10-30 08:05:00,
2013-10-30 04:10:00,35.6,28.5,30.25,West,269,0.0,0.0,75,0.00,,,0.00,VWS V14.01,2013-10-30 08:10:00,
2013-10-30 04:15:00,35.6,28.5,30.25,West,269,0.0,0.0,75,0.00,,,0.00,VWS V14.01,2013-10-30 08:15:00,
2013-10-30 04:20:00,34.7,27.6,30.28,West,269,0.0,0.0,75,0.00,,,0.00,VWS V14.01,2013-10-30 08:20:00,
2013-10-30 04:21:00,35.8,28.6,30.25,West,269,0.0,0.0,75,0.00,,,0.00,VWS V14.01,2013-10-30 08:21:00,
2013-10-30 04:25:00,34.9,27.8,30.28,West,269,0.0,0.0,75,0.00,,,0.00,VWS V14.01,2013-10-30 08:25:00,
2013-10-30 04:26:00,36.1,29.0,30.25,West,269,0.0,0.0,75,0.00,,,0.00,VWS V14.01,2013-10-30 08:26:00,
2013-10-30 04:30:00,35.2,28.1,30.28,West,269,0.0,0.0,75,0.00,,,0.00,VWS V14.01,2013-10-30 08:30:00,
2013-10-30 04:31:00,36.3,29.2,30.25,West,269,0.0,2.2,75,0.00,,,0.00,VWS V14.01,2013-10-30 08:31:00,
2013-10-30 04:35:00,35.2,28.1,30.28,West,269,0.0,0.0,75,0.00,,,0.00,VWS V14.01,2013-10-30 08:35:00,
2013-10-30 04:36:00,36.7,29.8,30.25,West,269,0.0,0.0,76,0.00,,,0.00,VWS V14.01,2013-10-30 08:36:00,
2013-10-30 04:40:00,35.2,28.1,30.25,West,269,0.0,0.0,75,0.00,,,0.00,VWS V14.01,2013-10-30 08:40:00,
2013-10-30 04:41:00,36.9,30.0,30.25,West,269,0.0,0.0,76,0.00,,,0.00,VWS V14.01,2013-10-30 08:41:00,
2013-10-30 04:45:00,35.4,28.3,30.25,West,269,0.0,0.0,75,0.00,,,0.00,VWS V14.01,2013-10-30 08:45:00,
2013-10-30 04:46:00,37.0,30.2,30.25,West,269,0.0,0.0,76,0.00,,,0.00,VWS V14.01,2013-10-30 08:46:00,
2013-10-30 04:50:00,35.4,28.3,30.25,West,269,0.0,0.0,75,0.00,,,0.00,VWS V14.01,2013-10-30 08:50:00,
2013-10-30 04:51:00,37.2,30.4,30.25,West,269,0.0,0.0,76,0.00,,,0.00,VWS V14.01,2013-10-30 08:51:00,
2013-10-30 04:55:00,35.4,28.3,30.25,West,269,0.0,0.0,75,0.00,,,0.00,VWS V14.01,2013-10-30 08:55:00,
2013-10-30 04:56:00,37.4,30.5,30.25,West,269,0.0,0.0,76,0.00,,,0.00,VWS V14.01,2013-10-30 08:56:00,
2013-10-30 05:00:00,35.6,28.5,30.25,West,269,0.0,0.0,75,0.00,,,0.00,VWS V14.01,2013-10-30 09:00:00,
2013-10-30 05:01:00,37.6,30.7,30.25,West,269,0.0,0.0,76,0.00,,,0.00,VWS V14.01,2013-10-30 09:01:00,
2013-10-30 05:05:00,35.4,28.3,30.25,West,269,0.0,0.0,75,0.00,,,0.00,VWS V14.01,2013-10-30 09:05:00,
2013-10-30 05:06:00,37.9,31.1,30.25,West,269,2.7,3.6,76,0.00,,,0.00,VWS V14.01,2013-10-30 09:06:00,
2013-10-30 05:10:00,35.6,28.5,30.25,West,269,0.0,0.0,75,0.00,,,0.00,VWS V14.01,2013-10-30 09:10:00,
2013-10-30 05:11:00,38.5,31.6,30.25,West,269,0.0,2.2,76,0.00,,,0.00,VWS V14.01,2013-10-30 09:11:00,
2013-10-30 05:15:00,35.6,28.5,30.25,West,269,0.0,0.0,75,0.00,,,0.00,VWS V14.01,2013-10-30 09:15:00,
2013-10-30 05:16:00,38.7,31.8,30.25,West,269,0.0,0.0,76,0.00,,,0.00,VWS V14.01,2013-10-30 09:16:00,
2013-10-30 05:20:00,35.8,28.6,30.25,West,269,0.0,0.0,75,0.00,,,0.00,VWS V14.01,2013-10-30 09:20:00,
2013-10-30 05:21:00,38.7,31.8,30.25,West,269,0.0,0.0,76,0.00,,,0.00,VWS V14.01,2013-10-30 09:21:00,
2013-10-30 05:25:00,36.1,29.0,30.25,West,269,0.0,2.7,75,0.00,,,0.00,VWS V14.01,2013-10-30 09:25:00,
2013-10-30 05:26:00,38.8,31.9,30.25,West,269,0.0,0.0,76,0.00,,,0.00,VWS V14.01,2013-10-30 09:26:00,
2013-10-30 05:30:00,36.3,29.2,30.25,West,269,2.2,3.1,75,0.00,,,0.00,VWS V14.01,2013-10-30 09:30:00,
2013-10-30 05:31:00,39.2,32.3,30.25,West,263,2.7,3.1,76,0.00,,,0.00,VWS V14.01,2013-10-30 09:31:00,
2013-10-30 05:35:00,36.5,29.7,30.25,West,269,0.0,2.2,76,0.00,,,0.00,VWS V14.01,2013-10-30 09:35:00,
2013-10-30 05:37:00,39.7,32.8,30.25,West,263,0.0,2.7,76,0.00,,,0.00,VWS V14.01,2013-10-30 09:37:00,
2013-10-30 05:40:00,36.7,29.8,30.25,West,269,0.0,0.0,76,0.00,,,0.00,VWS V14.01,2013-10-30 09:40:00,
2013-10-30 05:41:00,39.7,32.8,30.22,West,263,0.0,2.7,76,0.00,,,0.00,VWS V14.01,2013-10-30 09:41:00,
2013-10-30 05:45:00,37.0,30.2,30.25,West,269,0.0,0.0,76,0.00,,,0.00,VWS V14.01,2013-10-30 09:45:00,
2013-10-30 05:47:00,39.9,33.0,30.22,West,263,0.0,3.1,76,0.00,,,0.00,VWS V14.01,2013-10-30 09:47:00,
2013-10-30 05:50:00,37.2,30.4,30.25,West,269,0.0,0.0,76,0.00,,,0.00,VWS V14.01,2013-10-30 09:50:00,
2013-10-30 05:52:00,39.9,33.0,30.22,West,263,2.2,3.1,76,0.00,,,0.00,VWS V14.01,2013-10-30 09:52:00,
2013-10-30 05:55:00,37.4,30.5,30.25,West,269,0.0,0.0,76,0.00,,,0.00,VWS V14.01,2013-10-30 09:55:00,
2013-10-30 05:57:00,40.1,33.2,30.25,WNW,285,0.0,0.0,76,0.00,,,0.00,VWS V14.01,2013-10-30 09:57:00,
2013-10-30 06:00:00,37.4,30.5,30.25,West,269,0.0,0.0,76,0.00,,,0.00,VWS V14.01,2013-10-30 10:00:00,
2013-10-30 06:02:00,39.9,33.0,30.25,WNW,285,0.0,0.0,76,0.00,,,0.00,VWS V14.01,2013-10-30 10:02:00,
2013-10-30 06:05:00,37.8,30.9,30.25,West,269,3.6,3.6,76,0.00,,,0.00,VWS V14.01,2013-10-30 10:05:00,
2013-10-30 06:07:00,39.9,32.7,30.25,WNW,285,0.0,0.0,75,0.00,,,0.00,VWS V14.01,2013-10-30 10:07:00,
2013-10-30 06:10:00,38.3,31.4,30.25,West,269,0.0,3.6,76,0.00,,,0.00,VWS V14.01,2013-10-30 10:10:00,
2013-10-30 06:12:00,40.1,32.8,30.25,WNW,285,0.0,0.0,75,0.00,,,0.00,VWS V14.01,2013-10-30 10:12:00,
2013-10-30 06:15:00,38.5,31.6,30.25,West,269,0.0,2.2,76,0.00,,,0.00,VWS V14.01,2013-10-30 10:15:00,
2013-10-30 06:17:00,40.1,32.8,30.25,WNW,285,0.0,0.0,75,0.00,,,0.00,VWS V14.01,2013-10-30 10:17:00,
2013-10-30 06:20:00,38.7,31.8,30.25,West,269,0.0,0.0,76,0.00,,,0.00,VWS V14.01,2013-10-30 10:20:00,
2013-10-30 06:22:00,40.3,33.0,30.25,WNW,285,0.0,0.0,75,0.00,,,0.00,VWS V14.01,2013-10-30 10:22:00,
2013-10-30 06:25:00,38.8,31.9,30.25,West,269,0.0,0.0,76,0.00,,,0.00,VWS V14.01,2013-10-30 10:25:00,
2013-10-30 06:27:00,40.5,33.2,30.25,WNW,285,0.0,0.0,75,0.00,,,0.00,VWS V14.01,2013-10-30 10:27:00,
2013-10-30 06:30:00,39.2,32.3,30.25,West,269,0.0,0.0,76,0.00,,,0.00,VWS V14.01,2013-10-30 10:30:00,
2013-10-30 06:32:00,40.6,33.3,30.25,WNW,285,0.0,2.7,75,0.00,,,0.00,VWS V14.01,2013-10-30 10:32:00,
2013-10-30 06:35:00,39.6,32.6,30.25,West,263,2.2,3.1,76,0.00,,,0.00,VWS V14.01,2013-10-30 10:35:00,
2013-10-30 06:37:00,40.8,33.5,30.25,WNW,285,0.0,0.0,75,0.00,,,0.00,VWS V14.01,2013-10-30 10:37:00,
2013-10-30 06:40:00,39.7,32.8,30.22,West,263,2.2,3.1,76,0.00,,,0.00,VWS V14.01,2013-10-30 10:40:00,
2013-10-30 06:42:00,41.4,34.0,30.25,WNW,285,0.0,0.0,75,0.00,,,0.00,VWS V14.01,2013-10-30 10:42:00,
2013-10-30 06:45:00,39.7,32.8,30.22,West,263,2.7,2.7,76,0.00,,,0.00,VWS V14.01,2013-10-30 10:45:00,
2013-10-30 06:47:00,41.7,34.4,30.25,WNW,285,0.0,0.0,75,0.00,,,0.00,VWS V14.01,2013-10-30 10:47:00,
2013-10-30 06:50:00,39.9,33.0,30.22,West,263,2.7,3.6,76,0.00,,,0.00,VWS V14.01,2013-10-30 10:50:00,
2013-10-30 06:52:00,41.7,34.4,30.25,WNW,285,0.0,0.0,75,0.00,,,0.00,VWS V14.01,2013-10-30 10:52:00,
2013-10-30 06:55:00,40.1,33.2,30.25,WNW,285,0.0,3.1,76,0.00,,,0.00,VWS V14.01,2013-10-30 10:55:00,
2013-10-30 06:57:00,41.7,34.4,30.25,WNW,285,0.0,0.0,75,0.00,,,0.00,VWS V14.01,2013-10-30 10:57:00,
2013-10-30 07:00:00,39.9,33.0,30.25,WNW,285,0.0,0.0,76,0.00,,,0.00,VWS V14.01,2013-10-30 11:00:00,
2013-10-30 07:02:00,42.1,34.7,30.25,WNW,285,0.0,0.0,75,0.00,,,0.00,VWS V14.01,2013-10-30 11:02:00,
2013-10-30 07:05:00,39.9,33.0,30.25,WNW,285,0.0,0.0,76,0.00,,,0.00,VWS V14.01,2013-10-30 11:05:00,
2013-10-30 07:07:00,42.4,35.1,30.25,WNW,285,0.0,0.0,75,0.00,,,0.00,VWS V14.01,2013-10-30 11:07:00,
2013-10-30 07:10:00,40.1,32.8,30.25,WNW,285,0.0,0.0,75,0.00,,,0.00,VWS V14.01,2013-10-30 11:10:00,
2013-10-30 07:12:00,42.4,35.4,30.25,WNW,285,0.0,0.0,76,0.00,,,0.00,VWS V14.01,2013-10-30 11:12:00,
2013-10-30 07:15:00,40.1,32.8,30.25,WNW,285,0.0,0.0,75,0.00,,,0.00,VWS V14.01,2013-10-30 11:15:00,
2013-10-30 07:17:00,42.4,35.4,30.25,WNW,285,0.0,0.0,76,0.00,,,0.00,VWS V14.01,2013-10-30 11:17:00,
2013-10-30 07:20:00,40.3,33.0,30.25,WNW,285,0.0,0.0,75,0.00,,,0.00,VWS V14.01,2013-10-30 11:20:00,
2013-10-30 07:22:00,42.8,35.8,30.25,West,267,2.2,2.7,76,0.00,,,0.00,VWS V14.01,2013-10-30 11:22:00,
2013-10-30 07:25:00,40.5,33.2,30.25,WNW,285,0.0,0.0,75,0.00,,,0.00,VWS V14.01,2013-10-30 11:25:00,
2013-10-30 07:27:00,43.0,36.0,30.25,West,267,0.0,2.2,76,0.00,,,0.00,VWS V14.01,2013-10-30 11:27:00,
2013-10-30 07:30:00,40.5,33.2,30.25,WNW,285,2.7,2.7,75,0.00,,,0.00,VWS V14.01,2013-10-30 11:30:00,
2013-10-30 07:32:00,43.5,36.5,30.25,West,267,0.0,0.0,76,0.00,,,0.00,VWS V14.01,2013-10-30 11:32:00,
2013-10-30 07:35:00,40.6,33.3,30.25,WNW,285,0.0,2.7,75,0.00,,,0.00,VWS V14.01,2013-10-30 11:35:00,
2013-10-30 07:37:00,43.5,36.5,30.25,West,267,0.0,0.0,76,0.00,,,0.00,VWS V14.01,2013-10-30 11:37:00,
2013-10-30 07:40:00,41.2,33.5,30.25,WNW,285,0.0,0.0,74,0.00,,,0.00,VWS V14.01,2013-10-30 11:40:00,
2013-10-30 07:42:00,43.3,36.3,30.25,West,267,0.0,0.0,76,0.00,,,0.00,VWS V14.01,2013-10-30 11:42:00,
2013-10-30 07:45:00,41.5,34.2,30.25,WNW,285,0.0,0.0,75,0.00,,,0.00,VWS V14.01,2013-10-30 11:45:00,
2013-10-30 07:47:00,43.3,36.3,30.25,West,267,0.0,0.0,76,0.00,,,0.00,VWS V14.01,2013-10-30 11:47:00,
2013-10-30 07:50:00,41.7,34.4,30.25,WNW,285,0.0,0.0,75,0.00,,,0.00,VWS V14.01,2013-10-30 11:50:00,
2013-10-30 07:52:00,43.3,36.3,30.25,West,267,2.7,3.1,76,0.00,,,0.00,VWS V14.01,2013-10-30 11:52:00,
2013-10-30 07:55:00,41.7,34.4,30.25,WNW,285,0.0,0.0,75,0.00,,,0.00,VWS V14.01,2013-10-30 11:55:00,
2013-10-30 07:57:00,43.7,36.6,30.22,West,267,0.0,2.7,76,0.00,,,0.00,VWS V14.01,2013-10-30 11:57:00,
2013-10-30 08:00:00,41.9,34.6,30.25,WNW,285,0.0,0.0,75,0.00,,,0.00,VWS V14.01,2013-10-30 12:00:00,
2013-10-30 08:02:00,44.1,37.3,30.22,West,267,0.0,0.0,77,0.00,,,0.00,VWS V14.01,2013-10-30 12:02:00,
2013-10-30 08:05:00,42.1,34.7,30.25,WNW,285,0.0,0.0,75,0.00,,,0.00,VWS V14.01,2013-10-30 12:05:00,
2013-10-30 08:08:00,44.4,37.7,30.22,West,267,0.0,0.0,77,0.00,,,0.00,VWS V14.01,2013-10-30 12:08:00,
2013-10-30 08:10:00,42.4,35.4,30.25,WNW,285,0.0,0.0,76,0.00,,,0.00,VWS V14.01,2013-10-30 12:10:00,
2013-10-30 08:13:00,44.8,38.0,30.25,West,267,0.0,0.0,77,0.00,,,0.00,VWS V14.01,2013-10-30 12:13:00,
2013-10-30 08:15:00,42.4,35.4,30.25,WNW,285,0.0,0.0,76,0.00,,,0.00,VWS V14.01,2013-10-30 12:15:00,
2013-10-30 08:18:00,44.8,38.0,30.25,West,267,0.0,0.0,77,0.00,,,0.00,VWS V14.01,2013-10-30 12:18:00,
2013-10-30 08:20:00,42.4,35.4,30.25,WNW,285,0.0,0.0,76,0.00,,,0.00,VWS V14.01,2013-10-30 12:20:00,
2013-10-30 08:23:00,45.1,38.4,30.25,West,267,0.0,0.0,77,0.00,,,0.00,VWS V14.01,2013-10-30 12:23:00,
2013-10-30 08:25:00,42.8,35.8,30.25,West,267,2.2,2.7,76,0.00,,,0.00,VWS V14.01,2013-10-30 12:25:00,
2013-10-30 08:28:00,45.5,39.0,30.25,West,267,0.0,0.0,78,0.00,,,0.00,VWS V14.01,2013-10-30 12:28:00,
2013-10-30 08:30:00,43.3,36.3,30.25,West,267,0.0,2.2,76,0.00,,,0.00,VWS V14.01,2013-10-30 12:30:00,
2013-10-30 08:33:00,46.0,39.6,30.25,West,267,0.0,0.0,78,0.00,,,0.00,VWS V14.01,2013-10-30 12:33:00,
2013-10-30 08:35:00,43.5,36.5,30.25,West,267,0.0,0.0,76,0.00,,,0.00,VWS V14.01,2013-10-30 12:35:00,
2013-10-30 08:38:00,46.4,39.9,30.25,West,267,0.0,0.0,78,0.00,,,0.00,VWS V14.01,2013-10-30 12:38:00,
2013-10-30 08:40:00,43.5,36.5,30.25,West,267,0.0,0.0,76,0.00,,,0.00,VWS V14.01,2013-10-30 12:40:00,
2013-10-30 08:43:00,46.6,40.1,30.22,West,267,0.0,0.0,78,0.00,,,0.00,VWS V14.01,2013-10-30 12:43:00,
2013-10-30 08:45:00,43.3,36.3,30.25,West,267,0.0,0.0,76,0.00,,,0.00,VWS V14.01,2013-10-30 12:45:00,
2013-10-30 08:48:00,46.9,40.8,30.22,West,267,0.0,0.0,79,0.00,,,0.00,VWS V14.01,2013-10-30 12:48:00,
2013-10-30 08:50:00,43.3,36.3,30.25,West,267,0.0,0.0,76,0.00,,,0.00,VWS V14.01,2013-10-30 12:50:00,
2013-10-30 08:53:00,46.9,40.8,30.22,West,267,0.0,0.0,79,0.00,,,0.00,VWS V14.01,2013-10-30 12:53:00,
2013-10-30 08:55:00,43.5,36.5,30.22,West,267,2.2,3.1,76,0.00,,,0.00,VWS V14.01,2013-10-30 12:55:00,
2013-10-30 08:58:00,47.3,41.1,30.25,West,267,0.0,0.0,79,0.00,,,0.00,VWS V14.01,2013-10-30 12:58:00,
2013-10-30 09:00:00,43.7,37.0,30.22,West,267,0.0,2.7,77,0.00,,,0.00,VWS V14.01,2013-10-30 13:00:00,
2013-10-30 09:03:00,47.5,41.3,30.25,West,267,0.0,0.0,79,0.00,,,0.00,VWS V14.01,2013-10-30 13:03:00,
2013-10-30 09:05:00,44.2,37.5,30.22,West,267,0.0,0.0,77,0.00,,,0.00,VWS V14.01,2013-10-30 13:05:00,
2013-10-30 09:08:00,47.8,42.0,30.25,South,191,2.7,4.0,80,0.00,,,0.00,VWS V14.01,2013-10-30 13:08:00,
2013-10-30 09:10:00,44.6,37.8,30.25,West,267,0.0,0.0,77,0.00,,,0.00,VWS V14.01,2013-10-30 13:10:00,
2013-10-30 09:13:00,48.4,42.5,30.25,South,191,2.2,3.1,80,0.00,,,0.00,VWS V14.01,2013-10-30 13:13:00,
2013-10-30 09:15:00,44.8,38.0,30.25,West,267,0.0,0.0,77,0.00,,,0.00,VWS V14.01,2013-10-30 13:15:00,
2013-10-30 09:18:00,48.7,42.9,30.25,South,169,3.6,4.0,80,0.00,,,0.00,VWS V14.01,2013-10-30 13:18:00,
2013-10-30 09:20:00,45.0,38.2,30.25,West,267,0.0,0.0,77,0.00,,,0.00,VWS V14.01,2013-10-30 13:20:00,
2013-10-30 09:23:00,48.9,43.0,30.25,South,188,3.6,5.4,80,0.00,,,0.00,VWS V14.01,2013-10-30 13:23:00,
2013-10-30 09:25:00,45.3,38.9,30.25,West,267,0.0,0.0,78,0.00,,,0.00,VWS V14.01,2013-10-30 13:25:00,
2013-10-30 09:28:00,49.3,43.4,30.25,South,186,0.0,3.6,80,0.00,,,0.00,VWS V14.01,2013-10-30 13:28:00,
2013-10-30 09:30:00,45.7,39.2,30.25,West,267,0.0,0.0,78,0.00,,,0.00,VWS V14.01,2013-10-30 13:30:00,
2013-10-30 09:33:00,49.6,43.7,30.25,South,186,4.0,4.0,80,0.00,,,0.00,VWS V14.01,2013-10-30 13:33:00,
2013-10-30 09:35:00,46.0,39.6,30.25,West,267,0.0,0.0,78,0.00,,,0.00,VWS V14.01,2013-10-30 13:35:00,
2013-10-30 09:38:00,49.8,43.9,30.22,South,189,3.6,3.6,80,0.00,,,0.00,VWS V14.01,2013-10-30 13:38:00,
2013-10-30 09:40:00,46.6,40.1,30.22,West,267,0.0,0.0,78,0.00,,,0.00,VWS V14.01,2013-10-30 13:40:00,
2013-10-30 09:44:00,50.2,44.3,30.22,South,176,3.6,4.9,80,0.00,,,0.00,VWS V14.01,2013-10-30 13:44:00,
2013-10-30 09:45:00,46.8,40.6,30.22,West,267,0.0,0.0,79,0.00,,,0.00,VWS V14.01,2013-10-30 13:45:00,
2013-10-30 09:49:00,50.5,44.6,30.22,South,181,2.7,4.0,80,0.00,,,0.00,VWS V14.01,2013-10-30 13:49:00,
2013-10-30 09:50:00,46.9,40.8,30.22,West,267,0.0,0.0,79,0.00,,,0.00,VWS V14.01,2013-10-30 13:50:00,
2013-10-30 09:54:00,50.7,44.8,30.25,South,191,3.1,3.6,80,0.00,,,0.00,VWS V14.01,2013-10-30 13:54:00,
2013-10-30 09:55:00,47.1,41.0,30.25,West,267,0.0,0.0,79,0.00,,,0.00,VWS V14.01,2013-10-30 13:55:00,
2013-10-30 09:59:00,50.9,44.6,30.25,SSW,197,5.4,6.3,79,0.00,,,0.00,VWS V14.01,2013-10-30 13:59:00,
2013-10-30 10:00:00,47.3,41.1,30.25,West,267,0.0,0.0,79,0.00,,,0.00,VWS V14.01,2013-10-30 14:00:00,
2013-10-30 10:04:00,51.3,45.0,30.25,South,186,3.1,5.8,79,0.00,,,0.00,VWS V14.01,2013-10-30 14:04:00,
2013-10-30 10:05:00,47.7,41.8,30.25,West,267,0.0,0.0,80,0.00,,,0.00,VWS V14.01,2013-10-30 14:05:00,
2013-10-30 10:09:00,51.4,45.2,30.22,SW,223,3.1,6.3,79,0.00,,,0.00,VWS V14.01,2013-10-30 14:09:00,
2013-10-30 10:10:00,48.0,42.2,30.25,South,191,2.7,4.0,80,0.00,,,0.00,VWS V14.01,2013-10-30 14:10:00,
2013-10-30 10:14:00,51.6,45.3,30.22,SSW,194,3.1,5.4,79,0.00,,,0.00,VWS V14.01,2013-10-30 14:14:00,
2013-10-30 10:15:00,48.4,42.5,30.25,South,191,3.1,3.1,80,0.00,,,0.00,VWS V14.01,2013-10-30 14:15:00,
2013-10-30 10:19:00,52.0,45.3,30.22,South,178,3.6,4.9,78,0.00,,,0.00,VWS V14.01,2013-10-30 14:19:00,
2013-10-30 10:20:00,48.7,42.9,30.25,South,184,4.0,4.0,80,0.00,,,0.00,VWS V14.01,2013-10-30 14:20:00,
2013-10-30 10:24:00,52.3,45.7,30.22,SSW,192,4.9,5.8,78,0.00,,,0.00,VWS V14.01,2013-10-30 14:24:00,
2013-10-30 10:25:00,49.1,43.2,30.25,South,187,3.1,5.4,80,0.00,,,0.00,VWS V14.01,2013-10-30 14:25:00,
2013-10-30 10:29:00,52.5,45.9,30.22,South,186,4.9,5.4,78,0.00,,,0.00,VWS V14.01,2013-10-30 14:29:00,
2013-10-30 10:30:00,49.3,43.4,30.25,South,186,0.0,3.6,80,0.00,,,0.00,VWS V14.01,2013-10-30 14:30:00,
2013-10-30 10:34:00,52.7,45.7,30.22,SW,224,2.7,5.8,77,0.00,,,0.00,VWS V14.01,2013-10-30 14:34:00,
2013-10-30 10:35:00,49.6,43.7,30.25,South,186,2.7,4.0,80,0.00,,,0.00,VWS V14.01,2013-10-30 14:35:00,
2013-10-30 10:39:00,52.7,45.7,30.25,South,181,3.6,5.4,77,0.00,,,0.00,VWS V14.01,2013-10-30 14:39:00,
2013-10-30 10:40:00,50.0,44.1,30.22,South,189,2.7,3.6,80,0.00,,,0.00,VWS V14.01,2013-10-30 14:40:00,
2013-10-30 10:44:00,52.7,45.4,30.25,SSW,197,2.2,4.0,76,0.00,,,0.00,VWS V14.01,2013-10-30 14:44:00,
2013-10-30 10:45:00,50.2,44.3,30.22,South,176,3.6,4.9,80,0.00,,,0.00,VWS V14.01,2013-10-30 14:45:00,
2013-10-30 10:49:00,52.7,45.4,30.25,SW,229,0.0,4.9,76,0.00,,,0.00,VWS V14.01,2013-10-30 14:49:00,
2013-10-30 10:50:00,50.5,44.6,30.22,SSW,195,2.7,4.0,80,0.00,,,0.00,VWS V14.01,2013-10-30 14:50:00,
2013-10-30 10:54:00,52.7,45.4,30.25,South,189,3.1,4.9,76,0.00,,,0.00,VWS V14.01,2013-10-30 14:54:00,
2013-10-30 10:55:00,50.7,44.8,30.25,South,191,2.2,3.6,80,0.00,,,0.00,VWS V14.01,2013-10-30 14:55:00,
2013-10-30 10:59:00,52.7,45.4,30.25,South,189,2.7,4.0,76,0.00,,,0.00,VWS V14.01,2013-10-30 14:59:00,
2013-10-30 11:00:00,51.1,44.8,30.25,SSW,193,3.6,6.3,79,0.00,,,0.00,VWS V14.01,2013-10-30 15:00:00,
2013-10-30 11:04:00,52.5,45.2,30.25,SSW,198,2.7,4.0,76,0.00,,,0.00,VWS V14.01,2013-10-30 15:04:00,
2013-10-30 11:05:00,51.3,45.0,30.25,South,182,2.7,5.8,79,0.00,,,0.00,VWS V14.01,2013-10-30 15:05:00,
2013-10-30 11:09:00,52.3,45.0,30.25,South,188,2.2,3.6,76,0.00,,,0.00,VWS V14.01,2013-10-30 15:09:00,
2013-10-30 11:10:00,51.4,45.2,30.22,SSE,161,3.1,6.3,79,0.00,,,0.00,VWS V14.01,2013-10-30 15:10:00,
2013-10-30 11:14:00,52.2,44.8,30.25,South,190,2.2,5.8,76,0.00,,,0.00,VWS V14.01,2013-10-30 15:14:00,
2013-10-30 11:15:00,51.6,45.3,30.22,South,187,3.6,5.4,79,0.00,,,0.00,VWS V14.01,2013-10-30 15:15:00,
2013-10-30 11:19:00,52.2,44.8,30.25,South,183,3.1,5.4,76,0.00,,,0.00,VWS V14.01,2013-10-30 15:19:00,
2013-10-30 11:20:00,52.0,45.3,30.22,SSE,163,4.9,5.8,78,0.00,,,0.00,VWS V14.01,2013-10-30 15:20:00,
2013-10-30 11:24:00,52.3,45.0,30.22,South,188,3.6,4.5,76,0.00,,,0.00,VWS V14.01,2013-10-30 15:24:00,
2013-10-30 11:25:00,52.3,45.7,30.22,SSW,211,5.4,6.3,78,0.00,,,0.00,VWS V14.01,2013-10-30 15:25:00,
2013-10-30 11:29:00,52.3,45.0,30.22,South,185,5.4,5.4,76,0.00,,,0.00,VWS V14.01,2013-10-30 15:29:00,
2013-10-30 11:30:00,52.5,45.9,30.22,South,172,5.8,5.8,78,0.00,,,0.00,VWS V14.01,2013-10-30 15:30:00,
2013-10-30 11:34:00,52.3,45.0,30.22,SSW,193,3.1,4.0,76,0.00,,,0.00,VWS V14.01,2013-10-30 15:34:00,
2013-10-30 11:35:00,52.7,45.7,30.22,WSW,242,0.0,5.8,77,0.00,,,0.00,VWS V14.01,2013-10-30 15:35:00,
2013-10-30 11:39:00,52.5,45.2,30.22,South,185,3.1,3.6,76,0.00,,,0.00,VWS V14.01,2013-10-30 15:39:00,
2013-10-30 11:40:00,52.7,45.7,30.25,SSW,200,4.0,5.4,77,0.00,,,0.00,VWS V14.01,2013-10-30 15:40:00,
2013-10-30 11:44:00,52.5,45.2,30.22,WSW,240,2.7,4.9,76,0.00,,,0.00,VWS V14.01,2013-10-30 15:44:00,
2013-10-30 11:45:00,52.9,45.5,30.25,SSW,197,3.1,4.0,76,0.00,,,0.00,VWS V14.01,2013-10-30 15:45:00,
2013-10-30 11:49:00,52.7,45.4,30.22,SW,228,0.0,3.6,76,0.00,,,0.00,VWS V14.01,2013-10-30 15:49:00,
2013-10-30 11:50:00,52.7,45.4,30.25,South,179,4.0,4.9,76,0.00,,,0.00,VWS V14.01,2013-10-30 15:50:00,
2013-10-30 11:54:00,52.5,45.2,30.22,SW,221,3.1,3.6,76,0.00,,,0.00,VWS V14.01,2013-10-30 15:54:00,
2013-10-30 11:55:00,52.7,45.4,30.25,South,189,2.7,4.9,76,0.00,,,0.00,VWS V14.01,2013-10-30 15:55:00,
2013-10-30 11:59:00,52.5,45.2,30.22,SSW,201,2.7,3.6,76,0.00,,,0.00,VWS V14.01,2013-10-30 15:59:00,
2013-10-30 12:00:00,52.7,45.4,30.25,South,189,2.7,4.0,76,0.00,,,0.00,VWS V14.01,2013-10-30 16:00:00,
2013-10-30 12:04:00,52.5,45.2,30.22,SW,229,2.2,4.5,76,0.00,,,0.00,VWS V14.01,2013-10-30 16:04:00,
2013-10-30 12:05:00,52.3,45.0,30.25,SW,217,3.1,4.0,76,0.00,,,0.00,VWS V14.01,2013-10-30 16:05:00,
2013-10-30 12:09:00,52.5,45.2,30.22,South,181,2.2,3.6,76,0.00,,,0.00,VWS V14.01,2013-10-30 16:09:00,
2013-10-30 12:10:00,52.3,45.0,30.25,South,177,5.8,5.8,76,0.00,,,0.00,VWS V14.01,2013-10-30 16:10:00,
2013-10-30 12:14:00,52.7,45.4,30.22,South,182,0.0,4.0,76,0.00,,,0.00,VWS V14.01,2013-10-30 16:14:00,
2013-10-30 12:15:00,52.2,44.8,30.25,SW,219,3.6,5.8,76,0.00,,,0.00,VWS V14.01,2013-10-30 16:15:00,
2013-10-30 12:19:00,52.7,45.4,30.22,West,273,0.0,4.0,76,0.00,,,0.00,VWS V14.01,2013-10-30 16:19:00,
2013-10-30 12:20:00,52.2,44.8,30.25,South,184,3.6,5.4,76,0.00,,,0.00,VWS V14.01,2013-10-30 16:20:00,
2013-10-30 12:24:00,52.7,45.4,30.22,SW,224,0.0,2.2,76,0.00,,,0.00,VWS V14.01,2013-10-30 16:24:00,
2013-10-30 12:25:00,52.3,45.0,30.22,South,189,3.6,4.5,76,0.00,,,0.00,VWS V14.01,2013-10-30 16:25:00,
2013-10-30 12:29:00,52.5,44.8,30.22,WSW,242,2.2,3.6,75,0.00,,,0.00,VWS V14.01,2013-10-30 16:29:00,
2013-10-30 12:30:00,52.3,45.0,30.22,South,190,4.0,5.4,76,0.00,,,0.00,VWS V14.01,2013-10-30 16:30:00,
2013-10-30 12:34:00,52.5,44.8,30.22,WNW,282,0.0,4.0,75,0.00,,,0.00,VWS V14.01,2013-10-30 16:34:00,
2013-10-30 12:35:00,52.5,45.2,30.22,SSW,204,0.0,4.0,76,0.00,,,0.00,VWS V14.01,2013-10-30 16:35:00,
2013-10-30 12:39:00,52.5,44.8,30.22,West,261,3.6,5.4,75,0.00,,,0.00,VWS V14.01,2013-10-30 16:39:00,
2013-10-30 12:40:00,52.7,45.4,30.22,South,191,3.6,4.0,76,0.00,,,0.00,VWS V14.01,2013-10-30 16:40:00,
2013-10-30 12:44:00,52.5,44.5,30.22,WNW,291,4.0,5.4,74,0.00,,,0.00,VWS V14.01,2013-10-30 16:44:00,
2013-10-30 12:45:00,52.5,45.2,30.22,WSW,240,0.0,4.9,76,0.00,,,0.00,VWS V14.01,2013-10-30 16:45:00,
2013-10-30 12:49:00,52.9,44.8,30.22,West,263,0.0,4.5,74,0.00,,,0.00,VWS V14.01,2013-10-30 16:49:00,
2013-10-30 12:50:00,52.7,45.4,30.22,SW,228,0.0,3.6,76,0.00,,,0.00,VWS V14.01,2013-10-30 16:50:00,
2013-10-30 12:54:00,53.1,45.0,30.22,West,271,3.1,6.7,74,0.00,,,0.00,VWS V14.01,2013-10-30 16:54:00,
2013-10-30 12:55:00,52.5,45.2,30.22,SSW,213,2.7,3.6,76,0.00,,,0.00,VWS V14.01,2013-10-30 16:55:00,
2013-10-30 12:59:00,53.2,45.2,30.22,South,186,0.0,3.6,74,0.00,,,0.00,VWS V14.01,2013-10-30 16:59:00,
2013-10-30 13:00:00,52.5,45.2,30.22,South,173,4.5,4.5,76,0.00,,,0.00,VWS V14.01,2013-10-30 17:00:00,
2013-10-30 13:04:00,53.2,44.8,30.22,West,265,0.0,6.3,73,0.00,,,0.00,VWS V14.01,2013-10-30 17:04:00,
2013-10-30 13:05:00,52.5,45.2,30.22,SW,229,2.2,4.5,76,0.00,,,0.00,VWS V14.01,2013-10-30 17:05:00,
2013-10-30 13:09:00,53.2,44.8,30.19,WSW,246,2.7,3.6,73,0.00,,,0.00,VWS V14.01,2013-10-30 17:09:00,
2013-10-30 13:10:00,52.5,45.2,30.22,South,182,4.0,4.0,76,0.00,,,0.00,VWS V14.01,2013-10-30 17:10:00,
2013-10-30 13:14:00,53.2,44.8,30.19,WSW,251,0.0,5.8,73,0.00,,,0.00,VWS V14.01,2013-10-30 17:14:00,
2013-10-30 13:15:00,52.7,45.4,30.22,South,182,2.2,4.0,76,0.00,,,0.00,VWS V14.01,2013-10-30 17:15:00,
2013-10-30 13:19:00,53.1,44.7,30.19,West,273,0.0,6.3,73,0.00,,,0.00,VWS V14.01,2013-10-30 17:19:00,
2013-10-30 13:20:00,52.7,45.4,30.22,West,273,2.2,4.0,76,0.00,,,0.00,VWS V14.01,2013-10-30 17:20:00,
2013-10-30 13:24:00,53.2,44.8,30.19,WSW,240,3.6,6.3,73,0.00,,,0.00,VWS V14.01,2013-10-30 17:24:00,
2013-10-30 13:25:00,52.7,45.4,30.22,West,268,3.6,3.6,76,0.00,,,0.00,VWS V14.01,2013-10-30 17:25:00,
2013-10-30 13:29:00,53.2,44.8,30.19,WNW,287,2.2,4.9,73,0.00,,,0.00,VWS V14.01,2013-10-30 17:29:00,
2013-10-30 13:30:00,52.5,44.8,30.22,SW,227,2.2,3.6,75,0.00,,,0.00,VWS V14.01,2013-10-30 17:30:00,
2013-10-30 13:34:00,53.4,45.0,30.19,SW,223,3.1,4.0,73,0.00,,,0.00,VWS V14.01,2013-10-30 17:34:00,
2013-10-30 13:35:00,52.5,44.8,30.22,West,281,5.4,5.4,75,0.00,,,0.00,VWS V14.01,2013-10-30 17:35:00,
2013-10-30 13:39:00,53.4,45.0,30.19,WSW,248,2.2,4.9,73,0.00,,,0.00,VWS V14.01,2013-10-30 17:39:00,
2013-10-30 13:40:00,52.5,44.8,30.22,West,260,2.7,5.4,75,0.00,,,0.00,VWS V14.01,2013-10-30 17:40:00,
2013-10-30 13:44:00,53.4,45.0,30.19,WSW,249,0.0,5.8,73,0.00,,,0.00,VWS V14.01,2013-10-30 17:44:00,
2013-10-30 13:45:00,52.5,44.5,30.22,WSW,244,3.1,6.3,74,0.00,,,0.00,VWS V14.01,2013-10-30 17:45:00,
2013-10-30 13:49:00,53.6,45.2,30.19,WSW,249,0.0,0.0,73,0.00,,,0.00,VWS V14.01,2013-10-30 17:49:00,
2013-10-30 13:50:00,52.9,44.8,30.22,West,263,0.0,4.5,74,0.00,,,0.00,VWS V14.01,2013-10-30 17:50:00,
2013-10-30 13:54:00,53.8,45.0,30.19,WSW,249,0.0,4.0,72,0.00,,,0.00,VWS V14.01,2013-10-30 17:54:00,
2013-10-30 13:55:00,53.1,45.0,30.22,West,271,0.0,6.7,74,0.00,,,0.00,VWS V14.01,2013-10-30 17:55:00,
2013-10-30 13:59:00,53.8,45.0,30.19,West,263,0.0,5.8,72,0.00,,,0.00,VWS V14.01,2013-10-30 17:59:00,
2013-10-30 14:00:00,53.2,45.2,30.22,South,186,0.0,3.6,74,0.00,,,0.00,VWS V14.01,2013-10-30 18:00:00,
2013-10-30 14:04:00,54.0,45.5,30.19,WSW,247,0.0,3.1,73,0.00,,,0.00,VWS V14.01,2013-10-30 18:04:00,
2013-10-30 14:05:00,53.2,44.8,30.22,West,265,0.0,6.3,73,0.00,,,0.00,VWS V14.01,2013-10-30 18:05:00,
2013-10-30 14:09:00,54.0,45.2,30.19,WSW,240,0.0,3.1,72,0.00,,,0.00,VWS V14.01,2013-10-30 18:09:00,
2013-10-30 14:10:00,53.2,44.8,30.19,WSW,246,2.2,3.6,73,0.00,,,0.00,VWS V14.01,2013-10-30 18:10:00,
2013-10-30 14:14:00,54.0,45.2,30.19,WSW,242,2.2,5.4,72,0.00,,,0.00,VWS V14.01,2013-10-30 18:14:00,
2013-10-30 14:15:00,53.2,44.8,30.19,WSW,251,0.0,5.8,73,0.00,,,0.00,VWS V14.01,2013-10-30 18:15:00,
2013-10-30 14:19:00,54.0,45.2,30.19,WSW,242,0.0,0.0,72,0.00,,,0.00,VWS V14.01,2013-10-30 18:19:00,
2013-10-30 14:20:00,53.1,44.7,30.19,West,273,0.0,6.3,73,0.00,,,0.00,VWS V14.01,2013-10-30 18:20:00,
2013-10-30 14:24:00,54.1,45.3,30.16,WSW,237,0.0,5.4,72,0.00,,,0.00,VWS V14.01,2013-10-30 18:24:00,
2013-10-30 14:25:00,53.2,44.8,30.19,West,263,3.1,6.3,73,0.00,,,0.00,VWS V14.01,2013-10-30 18:25:00,
2013-10-30 14:29:00,54.1,45.3,30.16,SW,221,3.6,4.0,72,0.00,,,0.00,VWS V14.01,2013-10-30 18:29:00,
2013-10-30 14:30:00,53.2,44.8,30.19,SW,226,3.1,4.9,73,0.00,,,0.00,VWS V14.01,2013-10-30 18:30:00,
2013-10-30 14:34:00,54.1,45.3,30.16,WSW,256,3.1,4.0,72,0.00,,,0.00,VWS V14.01,2013-10-30 18:34:00,
2013-10-30 14:35:00,53.4,45.0,30.19,WSW,253,3.6,4.0,73,0.00,,,0.00,VWS V14.01,2013-10-30 18:35:00,
2013-10-30 14:39:00,54.1,45.0,30.16,SW,223,0.0,6.3,71,0.00,,,0.00,VWS V14.01,2013-10-30 18:39:00,
2013-10-30 14:40:00,53.4,45.0,30.19,WSW,248,2.2,4.9,73,0.00,,,0.00,VWS V14.01,2013-10-30 18:40:00,
2013-10-30 14:44:00,54.1,45.0,30.16,WSW,248,0.0,4.0,71,0.00,,,0.00,VWS V14.01,2013-10-30 18:44:00,
2013-10-30 14:45:00,53.4,45.0,30.19,WSW,249,0.0,5.8,73,0.00,,,0.00,VWS V14.01,2013-10-30 18:45:00,
2013-10-30 14:49:00,54.1,45.0,30.16,SW,229,0.0,4.0,71,0.00,,,0.00,VWS V14.01,2013-10-30 18:49:00,
2013-10-30 14:50:00,53.8,45.3,30.19,WSW,249,0.0,0.0,73,0.00,,,0.00,VWS V14.01,2013-10-30 18:50:00,
2013-10-30 14:54:00,54.3,45.1,30.16,SW,229,0.0,2.7,71,0.00,,,0.00,VWS V14.01,2013-10-30 18:54:00,
2013-10-30 14:55:00,53.8,45.0,30.19,West,263,5.8,5.8,72,0.00,,,0.00,VWS V14.01,2013-10-30 18:55:00,
2013-10-30 14:59:00,54.1,45.0,30.16,West,261,0.0,4.0,71,0.00,,,0.00,VWS V14.01,2013-10-30 18:59:00,
2013-10-30 15:00:00,53.8,45.0,30.19,WSW,247,2.7,5.8,72,0.00,,,0.00,VWS V14.01,2013-10-30 19:00:00,
2013-10-30 15:05:00,54.1,45.0,30.16,WSW,239,2.7,3.6,71,0.00,,,0.00,VWS V14.01,2013-10-30 19:05:00,
2013-10-30 15:10:00,54.1,45.0,30.16,SW,233,0.0,0.0,71,0.00,,,0.00,VWS V14.01,2013-10-30 19:10:00,
2013-10-30 15:15:00,54.1,45.0,30.16,WSW,241,2.7,3.6,71,0.00,,,0.00,VWS V14.01,2013-10-30 19:15:00,
2013-10-30 15:20:00,54.1,45.0,30.16,WSW,241,0.0,0.0,71,0.00,,,0.00,VWS V14.01,2013-10-30 19:20:00,
2013-10-30 15:25:00,54.1,45.0,30.16,WSW,241,0.0,3.1,71,0.00,,,0.00,VWS V14.01,2013-10-30 19:25:00,
2013-10-30 15:30:00,54.1,45.0,30.16,WSW,245,2.2,3.6,71,0.00,,,0.00,VWS V14.01,2013-10-30 19:30:00,
2013-10-30 15:35:00,54.1,45.0,30.16,WSW,245,0.0,0.0,71,0.00,,,0.00,VWS V14.01,2013-10-30 19:35:00,
2013-10-30 15:40:00,54.3,45.1,30.16,WSW,245,2.7,2.7,71,0.00,,,0.00,VWS V14.01,2013-10-30 19:40:00,
2013-10-30 15:45:00,54.5,45.3,30.16,WSW,245,0.0,0.0,71,0.00,,,0.00,VWS V14.01,2013-10-30 19:45:00,
2013-10-30 15:50:00,54.7,45.5,30.16,WSW,245,0.0,0.0,71,0.00,,,0.00,VWS V14.01,2013-10-30 19:50:00,
2013-10-30 15:55:00,54.9,45.7,30.16,WSW,245,0.0,0.0,71,0.00,,,0.00,VWS V14.01,2013-10-30 19:55:00,
2013-10-30 16:00:00,54.9,45.7,30.16,SW,236,0.0,0.0,71,0.00,,,0.00,VWS V14.01,2013-10-30 20:00:00,
2013-10-30 16:05:00,55.0,45.5,30.16,SSW,205,2.2,2.7,70,0.00,,,0.00,VWS V14.01,2013-10-30 20:05:00,
2013-10-30 16:10:00,55.2,45.6,30.16,SW,221,4.0,4.0,70,0.00,,,0.00,VWS V14.01,2013-10-30 20:10:00,
2013-10-30 16:15:00,55.6,45.6,30.16,WSW,258,2.2,2.7,69,0.00,,,0.00,VWS V14.01,2013-10-30 20:15:00,
2013-10-30 16:20:00,55.4,45.4,30.16,West,281,3.1,3.1,69,0.00,,,0.00,VWS V14.01,2013-10-30 20:20:00,
2013-10-30 16:25:00,55.6,45.6,30.16,WNW,288,3.6,3.6,69,0.00,,,0.00,VWS V14.01,2013-10-30 20:25:00,
2013-10-30 16:30:00,54.1,45.0,30.16,WSW,245,3.6,3.6,71,0.00,,,0.00,VWS V14.01,2013-10-30 20:30:00,
2013-10-30 16:31:00,55.6,45.6,30.16,South,180,3.6,4.0,69,0.00,,,0.00,VWS V14.01,2013-10-30 20:31:00,
2013-10-30 16:35:00,54.1,45.0,30.16,WSW,245,0.0,3.6,71,0.00,,,0.00,VWS V14.01,2013-10-30 20:35:00,
2013-10-30 16:36:00,55.6,45.2,30.16,South,188,3.1,5.4,68,0.00,,,0.00,VWS V14.01,2013-10-30 20:36:00,
2013-10-30 16:40:00,54.3,45.1,30.16,WSW,245,2.2,2.2,71,0.00,,,0.00,VWS V14.01,2013-10-30 20:40:00,
2013-10-30 16:41:00,55.8,45.4,30.16,South,190,4.0,4.0,68,0.00,,,0.00,VWS V14.01,2013-10-30 20:41:00,
2013-10-30 16:45:00,54.5,45.3,30.16,WSW,245,0.0,2.7,71,0.00,,,0.00,VWS V14.01,2013-10-30 20:45:00,
2013-10-30 16:46:00,55.8,45.4,30.16,SW,214,3.1,3.1,68,0.00,,,0.00,VWS V14.01,2013-10-30 20:46:00,
2013-10-30 16:50:00,54.7,45.5,30.16,WSW,245,0.0,0.0,71,0.00,,,0.00,VWS V14.01,2013-10-30 20:50:00,
2013-10-30 16:51:00,55.6,45.2,30.16,West,261,0.0,3.1,68,0.00,,,0.00,VWS V14.01,2013-10-30 20:51:00,
2013-10-30 16:55:00,54.9,45.7,30.16,WSW,245,0.0,0.0,71,0.00,,,0.00,VWS V14.01,2013-10-30 20:55:00,
2013-10-30 16:56:00,55.6,45.2,30.16,SSW,200,0.0,3.6,68,0.00,,,0.00,VWS V14.01,2013-10-30 20:56:00,
2013-10-30 17:00:00,54.9,45.7,30.16,SW,236,0.0,3.6,71,0.00,,,0.00,VWS V14.01,2013-10-30 21:00:00,
2013-10-30 17:01:00,55.8,45.4,30.16,SSW,196,2.7,2.7,68,0.00,,,0.00,VWS V14.01,2013-10-30 21:01:00,
2013-10-30 17:05:00,55.0,45.5,30.16,SSW,205,0.0,3.6,70,0.00,,,0.00,VWS V14.01,2013-10-30 21:05:00,
2013-10-30 17:06:00,55.6,44.8,30.16,SSW,196,2.2,2.7,67,0.00,,,0.00,VWS V14.01,2013-10-30 21:06:00,
2013-10-30 17:10:00,55.2,45.6,30.16,SSW,205,2.2,3.6,70,0.00,,,0.00,VWS V14.01,2013-10-30 21:10:00,
2013-10-30 17:11:00,55.6,44.8,30.16,SSW,196,0.0,0.0,67,0.00,,,0.00,VWS V14.01,2013-10-30 21:11:00,
2013-10-30 17:15:00,55.6,45.6,30.16,SSW,212,2.2,4.0,69,0.00,,,0.00,VWS V14.01,2013-10-30 21:15:00,
2013-10-30 17:16:00,55.2,44.9,30.16,SSE,150,2.7,3.1,68,0.00,,,0.00,VWS V14.01,2013-10-30 21:16:00,
2013-10-30 17:20:00,55.4,45.4,30.16,West,260,0.0,5.8,69,0.00,,,0.00,VWS V14.01,2013-10-30 21:20:00,
2013-10-30 17:21:00,55.0,44.7,30.16,SSE,150,2.7,4.0,68,0.00,,,0.00,VWS V14.01,2013-10-30 21:21:00,
2013-10-30 17:25:00,55.6,45.6,30.16,South,184,2.2,4.0,69,0.00,,,0.00,VWS V14.01,2013-10-30 21:25:00,
2013-10-30 17:26:00,54.9,44.5,30.16,SSE,150,3.6,3.6,68,0.00,,,0.00,VWS V14.01,2013-10-30 21:26:00,
2013-10-30 17:30:00,55.6,45.6,30.16,SSW,194,0.0,3.6,69,0.00,,,0.00,VWS V14.01,2013-10-30 21:30:00,
2013-10-30 17:31:00,54.5,44.2,30.16,SSE,151,0.0,2.2,68,0.00,,,0.00,VWS V14.01,2013-10-30 21:31:00,
2013-10-30 17:35:00,55.6,45.2,30.16,South,177,5.4,5.4,68,0.00,,,0.00,VWS V14.01,2013-10-30 21:35:00,
2013-10-30 17:36:00,54.3,44.0,30.16,SSE,151,3.6,3.6,68,0.00,,,0.00,VWS V14.01,2013-10-30 21:36:00,
2013-10-30 17:40:00,55.8,45.4,30.16,South,169,4.0,5.4,68,0.00,,,0.00,VWS V14.01,2013-10-30 21:40:00,
2013-10-30 17:41:00,54.1,44.2,30.16,SSE,151,2.2,3.1,69,0.00,,,0.00,VWS V14.01,2013-10-30 21:41:00,
2013-10-30 17:45:00,55.8,45.4,30.16,SSW,204,2.2,4.0,68,0.00,,,0.00,VWS V14.01,2013-10-30 21:45:00,
2013-10-30 17:46:00,53.8,43.9,30.16,SSE,151,2.7,2.7,69,0.00,,,0.00,VWS V14.01,2013-10-30 21:46:00,
2013-10-30 17:50:00,55.6,45.2,30.16,West,261,3.1,3.6,68,0.00,,,0.00,VWS V14.01,2013-10-30 21:50:00,
2013-10-30 17:52:00,53.6,43.7,30.16,SSE,151,2.2,3.1,69,0.00,,,0.00,VWS V14.01,2013-10-30 21:52:00,
2013-10-30 17:55:00,55.6,45.2,30.16,South,176,2.7,3.1,68,0.00,,,0.00,VWS V14.01,2013-10-30 21:55:00,
2013-10-30 17:57:00,53.2,43.7,30.16,SSE,151,0.0,2.7,70,0.00,,,0.00,VWS V14.01,2013-10-30 21:57:00,
2013-10-30 18:00:00,55.8,45.4,30.16,SSW,196,2.2,3.6,68,0.00,,,0.00,VWS V14.01,2013-10-30 22:00:00,
2013-10-30 18:02:00,53.1,43.5,30.16,SSE,151,0.0,2.7,70,0.00,,,0.00,VWS V14.01,2013-10-30 22:02:00,
2013-10-30 18:05:00,55.6,44.8,30.16,SSW,196,2.2,3.1,67,0.00,,,0.00,VWS V14.01,2013-10-30 22:05:00,
2013-10-30 18:07:00,52.7,43.6,30.16,SSE,151,0.0,0.0,71,0.00,,,0.00,VWS V14.01,2013-10-30 22:07:00,
2013-10-30 18:10:00,55.6,44.8,30.16,SSW,196,0.0,2.7,67,0.00,,,0.00,VWS V14.01,2013-10-30 22:10:00,
2013-10-30 18:12:00,52.3,43.2,30.16,SSE,151,0.0,0.0,71,0.00,,,0.00,VWS V14.01,2013-10-30 22:12:00,
2013-10-30 18:15:00,55.4,44.6,30.16,SSE,150,3.1,4.5,67,0.00,,,0.00,VWS V14.01,2013-10-30 22:15:00,
2013-10-30 18:17:00,52.0,42.9,30.16,SSE,151,2.2,2.2,71,0.00,,,0.00,VWS V14.01,2013-10-30 22:17:00,
2013-10-30 18:20:00,55.2,44.9,30.16,SSE,150,2.7,3.1,68,0.00,,,0.00,VWS V14.01,2013-10-30 22:20:00,
2013-10-30 18:22:00,51.6,42.9,30.16,SSE,151,0.0,0.0,72,0.00,,,0.00,VWS V14.01,2013-10-30 22:22:00,
2013-10-30 18:25:00,54.9,44.5,30.16,SSE,150,3.1,4.0,68,0.00,,,0.00,VWS V14.01,2013-10-30 22:25:00,
2013-10-30 18:27:00,51.1,42.4,30.16,SSE,151,0.0,0.0,72,0.00,,,0.00,VWS V14.01,2013-10-30 22:27:00,
2013-10-30 18:30:00,54.7,44.3,30.16,SSE,151,2.2,4.0,68,0.00,,,0.00,VWS V14.01,2013-10-30 22:30:00,
2013-10-30 18:32:00,51.1,42.4,30.16,SSE,151,0.0,0.0,72,0.00,,,0.00,VWS V14.01,2013-10-30 22:32:00,
2013-10-30 18:35:00,54.5,44.2,30.16,SSE,151,0.0,2.2,68,0.00,,,0.00,VWS V14.01,2013-10-30 22:35:00,
2013-10-30 18:37:00,50.7,42.4,30.16,SSE,151,0.0,0.0,73,0.00,,,0.00,VWS V14.01,2013-10-30 22:37:00,
2013-10-30 18:40:00,54.1,44.2,30.16,SSE,151,3.1,3.6,69,0.00,,,0.00,VWS V14.01,2013-10-30 22:40:00,
2013-10-30 18:42:00,50.4,42.0,30.16,SSE,151,0.0,0.0,73,0.00,,,0.00,VWS V14.01,2013-10-30 22:42:00,
2013-10-30 18:45:00,54.0,44.0,30.16,SSE,151,2.7,3.1,69,0.00,,,0.00,VWS V14.01,2013-10-30 22:45:00,
2013-10-30 18:47:00,49.8,41.5,30.16,SSE,151,0.0,0.0,73,0.00,,,0.00,VWS V14.01,2013-10-30 22:47:00,
2013-10-30 18:50:00,53.6,43.7,30.16,SSE,151,3.1,3.1,69,0.00,,,0.00,VWS V14.01,2013-10-30 22:50:00,
2013-10-30 18:53:00,49.3,41.0,30.16,SSE,151,0.0,0.0,73,0.00,,,0.00,VWS V14.01,2013-10-30 22:53:00,
2013-10-30 18:55:00,53.2,43.7,30.16,SSE,151,0.0,3.1,70,0.00,,,0.00,VWS V14.01,2013-10-30 22:55:00,
2013-10-30 18:58:00,49.1,41.2,30.16,SSE,151,0.0,0.0,74,0.00,,,0.00,VWS V14.01,2013-10-30 22:58:00,
2013-10-30 19:00:00,53.1,43.5,30.16,SSE,151,2.7,2.7,70,0.00,,,0.00,VWS V14.01,2013-10-30 23:00:00,
2013-10-30 19:03:00,48.9,41.0,30.16,SSE,151,0.0,0.0,74,0.00,,,0.00,VWS V14.01,2013-10-30 23:03:00,
2013-10-30 19:05:00,52.9,43.8,30.16,SSE,151,0.0,2.7,71,0.00,,,0.00,VWS V14.01,2013-10-30 23:05:00,
2013-10-30 19:08:00,48.9,41.4,30.16,SSE,151,0.0,0.0,75,0.00,,,0.00,VWS V14.01,2013-10-30 23:08:00,
2013-10-30 19:10:00,52.5,43.4,30.16,SSE,151,0.0,0.0,71,0.00,,,0.00,VWS V14.01,2013-10-30 23:10:00,
2013-10-30 19:13:00,48.7,41.2,30.16,SSE,151,0.0,0.0,75,0.00,,,0.00,VWS V14.01,2013-10-30 23:13:00,
2013-10-30 19:15:00,52.2,43.1,30.16,SSE,151,0.0,0.0,71,0.00,,,0.00,VWS V14.01,2013-10-30 23:15:00,
2013-10-30 19:18:00,48.4,40.8,30.16,SSE,151,0.0,0.0,75,0.00,,,0.00,VWS V14.01,2013-10-30 23:18:00,
2013-10-30 19:20:00,51.8,42.7,30.16,SSE,151,0.0,2.2,71,0.00,,,0.00,VWS V14.01,2013-10-30 23:20:00,
2013-10-30 19:23:00,48.0,40.8,30.19,SSE,151,0.0,0.0,76,0.00,,,0.00,VWS V14.01,2013-10-30 23:23:00,
2013-10-30 19:25:00,51.4,42.7,30.16,SSE,151,0.0,0.0,72,0.00,,,0.00,VWS V14.01,2013-10-30 23:25:00,
2013-10-30 19:28:00,47.1,39.6,30.19,SSE,151,0.0,0.0,75,0.00,,,0.00,VWS V14.01,2013-10-30 23:28:00,
2013-10-30 19:30:00,51.1,42.4,30.16,SSE,151,0.0,0.0,72,0.00,,,0.00,VWS V14.01,2013-10-30 23:30:00,
2013-10-30 19:33:00,46.9,39.4,30.19,SSE,151,0.0,0.0,75,0.00,,,0.00,VWS V14.01,2013-10-30 23:33:00,
2013-10-30 19:35:00,50.9,42.2,30.16,SSE,151,0.0,0.0,72,0.00,,,0.00,VWS V14.01,2013-10-30 23:35:00,
2013-10-30 19:38:00,46.9,39.4,30.19,SSE,151,0.0,0.0,75,0.00,,,0.00,VWS V14.01,2013-10-30 23:38:00,
2013-10-30 19:40:00,50.5,42.2,30.16,SSE,151,0.0,0.0,73,0.00,,,0.00,VWS V14.01,2013-10-30 23:40:00,
2013-10-30 19:43:00,46.9,39.8,30.19,SSE,151,0.0,0.0,76,0.00,,,0.00,VWS V14.01,2013-10-30 23:43:00,
2013-10-30 19:45:00,50.2,41.9,30.16,SSE,151,0.0,0.0,73,0.00,,,0.00,VWS V14.01,2013-10-30 23:45:00,
2013-10-30 19:48:00,46.8,39.6,30.19,SSE,151,0.0,0.0,76,0.00,,,0.00,VWS V14.01,2013-10-30 23:48:00,
2013-10-30 19:50:00,49.6,41.3,30.16,SSE,151,0.0,0.0,73,0.00,,,0.00,VWS V14.01,2013-10-30 23:50:00,
2013-10-30 19:53:00,46.6,39.4,30.19,SSE,151,0.0,0.0,76,0.00,,,0.00,VWS V14.01,2013-10-30 23:53:00,
2013-10-30 19:55:00,49.3,41.0,30.16,SSE,151,0.0,0.0,73,0.00,,,0.00,VWS V14.01,2013-10-30 23:55:00,
2013-10-30 19:59:00,46.4,39.3,30.19,SSE,151,0.0,0.0,76,0.00,,,0.00,VWS V14.01,2013-10-30 23:59:00,
2013-10-30 20:00:00,49.1,41.2,30.16,SSE,151,0.0,0.0,74,0.00,,,0.00,VWS V14.01,2013-10-31 00:00:00,
2013-10-30 20:04:00,46.6,39.8,30.19,SSE,151,0.0,0.0,77,0.00,,,0.00,VWS V14.01,2013-10-31 00:04:00,
2013-10-30 20:05:00,48.9,41.0,30.16,SSE,151,0.0,0.0,74,0.00,,,0.00,VWS V14.01,2013-10-31 00:05:00,
2013-10-30 20:09:00,46.2,39.4,30.19,SSE,151,0.0,0.0,77,0.00,,,0.00,VWS V14.01,2013-10-31 00:09:00,
2013-10-30 20:10:00,48.9,41.4,30.16,SSE,151,0.0,0.0,75,0.00,,,0.00,VWS V14.01,2013-10-31 00:10:00,
2013-10-30 20:14:00,46.0,39.2,30.19,SSE,151,0.0,0.0,77,0.00,,,0.00,VWS V14.01,2013-10-31 00:14:00,
2013-10-30 20:15:00,48.6,41.0,30.16,SSE,151,0.0,0.0,75,0.00,,,0.00,VWS V14.01,2013-10-31 00:15:00,
2013-10-30 20:19:00,46.0,39.6,30.19,SSE,151,0.0,0.0,78,0.00,,,0.00,VWS V14.01,2013-10-31 00:19:00,
2013-10-30 20:20:00,48.4,40.8,30.16,SSE,151,0.0,0.0,75,0.00,,,0.00,VWS V14.01,2013-10-31 00:20:00,
2013-10-30 20:24:00,45.3,38.5,30.19,SSE,151,0.0,0.0,77,0.00,,,0.00,VWS V14.01,2013-10-31 00:24:00,
2013-10-30 20:25:00,47.7,40.5,30.19,SSE,151,0.0,0.0,76,0.00,,,0.00,VWS V14.01,2013-10-31 00:25:00,
2013-10-30 20:29:00,45.3,38.5,30.19,SSE,151,0.0,0.0,77,0.00,,,0.00,VWS V14.01,2013-10-31 00:29:00,
2013-10-30 20:30:00,47.1,39.6,30.19,SSE,151,0.0,0.0,75,0.00,,,0.00,VWS V14.01,2013-10-31 00:30:00,
2013-10-30 20:34:00,45.5,39.0,30.19,SSE,151,0.0,0.0,78,0.00,,,0.00,VWS V14.01,2013-10-31 00:34:00,
2013-10-30 20:35:00,46.9,39.4,30.19,SSE,151,0.0,0.0,75,0.00,,,0.00,VWS V14.01,2013-10-31 00:35:00,
2013-10-30 20:39:00,45.7,39.2,30.19,SSE,151,0.0,0.0,78,0.00,,,0.00,VWS V14.01,2013-10-31 00:39:00,
2013-10-30 20:40:00,46.9,39.4,30.19,SSE,151,0.0,0.0,75,0.00,,,0.00,VWS V14.01,2013-10-31 00:40:00,
2013-10-30 20:44:00,45.9,39.7,30.19,SSE,151,0.0,0.0,79,0.00,,,0.00,VWS V14.01,2013-10-31 00:44:00,
2013-10-30 20:45:00,47.1,40.0,30.19,SSE,151,0.0,0.0,76,0.00,,,0.00,VWS V14.01,2013-10-31 00:45:00,
2013-10-30 20:49:00,45.7,39.5,30.19,SSE,151,0.0,0.0,79,0.00,,,0.00,VWS V14.01,2013-10-31 00:49:00,
2013-10-30 20:50:00,46.8,39.6,30.19,SSE,151,0.0,0.0,76,0.00,,,0.00,VWS V14.01,2013-10-31 00:50:00,
2013-10-30 20:54:00,45.5,39.7,30.19,SSE,151,0.0,0.0,80,0.00,,,0.00,VWS V14.01,2013-10-31 00:54:00,
2013-10-30 20:55:00,46.4,39.3,30.19,SSE,151,0.0,0.0,76,0.00,,,0.00,VWS V14.01,2013-10-31 00:55:00,
2013-10-30 20:59:00,45.3,39.2,30.19,SSE,151,0.0,0.0,79,0.00,,,0.00,VWS V14.01,2013-10-31 00:59:00,
2013-10-30 21:00:00,46.4,39.3,30.19,SSE,151,0.0,0.0,76,0.00,,,0.00,VWS V14.01,2013-10-31 01:00:00,
2013-10-30 21:04:00,45.3,39.5,30.19,SSE,151,0.0,0.0,80,0.00,,,0.00,VWS V14.01,2013-10-31 01:04:00,
2013-10-30 21:05:00,46.6,39.8,30.19,SSE,151,0.0,0.0,77,0.00,,,0.00,VWS V14.01,2013-10-31 01:05:00,
2013-10-30 21:09:00,45.3,39.5,30.19,SSE,151,0.0,0.0,80,0.00,,,0.00,VWS V14.01,2013-10-31 01:09:00,
2013-10-30 21:10:00,46.0,39.2,30.19,SSE,151,0.0,0.0,77,0.00,,,0.00,VWS V14.01,2013-10-31 01:10:00,
2013-10-30 21:14:00,45.1,39.3,30.19,SSE,151,0.0,0.0,80,0.00,,,0.00,VWS V14.01,2013-10-31 01:14:00,
2013-10-30 21:15:00,46.0,39.2,30.19,SSE,151,0.0,0.0,77,0.00,,,0.00,VWS V14.01,2013-10-31 01:15:00,
2013-10-30 21:19:00,45.0,39.2,30.19,SSE,151,0.0,0.0,80,0.00,,,0.00,VWS V14.01,2013-10-31 01:19:00,
2013-10-30 21:20:00,45.9,39.4,30.19,SSE,151,0.0,0.0,78,0.00,,,0.00,VWS V14.01,2013-10-31 01:20:00,
2013-10-30 21:24:00,45.0,39.2,30.19,SSE,151,0.0,2.7,80,0.00,,,0.00,VWS V14.01,2013-10-31 01:24:00,
2013-10-30 21:25:00,45.3,38.5,30.19,SSE,151,0.0,0.0,77,0.00,,,0.00,VWS V14.01,2013-10-31 01:25:00,
2013-10-30 21:29:00,45.1,39.7,30.19,SSE,151,0.0,2.7,81,0.00,,,0.00,VWS V14.01,2013-10-31 01:29:00,
2013-10-30 21:30:00,45.3,38.5,30.19,SSE,151,0.0,0.0,77,0.00,,,0.00,VWS V14.01,2013-10-31 01:30:00,
2013-10-30 21:34:00,44.8,39.3,30.19,SSE,151,0.0,0.0,81,0.00,,,0.00,VWS V14.01,2013-10-31 01:34:00,
2013-10-30 21:35:00,45.5,39.0,30.19,SSE,151,0.0,0.0,78,0.00,,,0.00,VWS V14.01,2013-10-31 01:35:00,
2013-10-30 21:39:00,44.8,39.3,30.19,SSE,151,0.0,0.0,81,0.00,,,0.00,VWS V14.01,2013-10-31 01:39:00,
2013-10-30 21:40:00,45.7,39.2,30.19,SSE,151,0.0,0.0,78,0.00,,,0.00,VWS V14.01,2013-10-31 01:40:00,
2013-10-30 21:44:00,44.8,39.3,30.19,SSE,151,0.0,2.7,81,0.00,,,0.00,VWS V14.01,2013-10-31 01:44:00,
2013-10-30 21:45:00,45.9,39.7,30.19,SSE,151,0.0,0.0,79,0.00,,,0.00,VWS V14.01,2013-10-31 01:45:00,
2013-10-30 21:50:00,44.6,39.5,30.19,SSE,151,0.0,2.7,82,0.00,,,0.00,VWS V14.01,2013-10-31 01:50:00,
2013-10-30 21:55:00,44.6,39.5,30.19,SSE,151,0.0,2.7,82,0.00,,,0.00,VWS V14.01,2013-10-31 01:55:00,
2013-10-30 22:00:00,44.6,39.5,30.19,SSE,151,0.0,3.1,82,0.00,,,0.00,VWS V14.01,2013-10-31 02:00:00,
2013-10-30 22:05:00,44.4,39.6,30.19,SSE,151,0.0,0.0,83,0.00,,,0.00,VWS V14.01,2013-10-31 02:05:00,
2013-10-30 22:10:00,44.2,39.4,30.19,SSE,151,0.0,0.0,83,0.00,,,0.00,VWS V14.01,2013-10-31 02:10:00,
2013-10-30 22:15:00,43.9,39.1,30.19,SSE,151,0.0,0.0,83,0.00,,,0.00,VWS V14.01,2013-10-31 02:15:00,
2013-10-30 22:20:00,43.9,39.1,30.19,SSE,151,0.0,0.0,83,0.00,,,0.00,VWS V14.01,2013-10-31 02:20:00,
2013-10-30 22:25:00,43.7,38.9,30.19,SSE,151,0.0,0.0,83,0.00,,,0.00,VWS V14.01,2013-10-31 02:25:00,
2013-10-30 22:30:00,43.7,38.9,30.19,SSE,151,0.0,0.0,83,0.00,,,0.00,VWS V14.01,2013-10-31 02:30:00,
2013-10-30 22:35:00,43.5,38.7,30.19,SSE,151,0.0,0.0,83,0.00,,,0.00,VWS V14.01,2013-10-31 02:35:00,
2013-10-30 22:40:00,43.5,38.7,30.19,SSE,151,0.0,0.0,83,0.00,,,0.00,VWS V14.01,2013-10-31 02:40:00,
2013-10-30 22:45:00,43.7,38.9,30.19,SSE,151,0.0,0.0,83,0.00,,,0.00,VWS V14.01,2013-10-31 02:45:00,
2013-10-30 22:50:00,43.7,38.9,30.19,SSE,151,0.0,0.0,83,0.00,,,0.00,VWS V14.01,2013-10-31 02:50:00,
2013-10-30 22:55:00,43.7,38.9,30.19,SSE,151,0.0,0.0,83,0.00,,,0.00,VWS V14.01,2013-10-31 02:55:00,
2013-10-30 23:00:00,44.1,39.5,30.19,SSE,151,0.0,0.0,84,0.00,,,0.00,VWS V14.01,2013-10-31 03:00:00,
2013-10-30 23:05:00,43.5,38.7,30.19,SSE,151,0.0,0.0,83,0.00,,,0.00,VWS V14.01,2013-10-31 03:05:00,
2013-10-30 23:10:00,43.3,38.5,30.19,SSE,151,0.0,0.0,83,0.00,,,0.00,VWS V14.01,2013-10-31 03:10:00,
2013-10-30 23:15:00,43.9,39.1,30.19,SSE,151,0.0,0.0,83,0.00,,,0.00,VWS V14.01,2013-10-31 03:15:00,
2013-10-30 23:16:00,43.3,38.5,30.19,SSE,151,0.0,0.0,83,0.00,,,0.00,VWS V14.01,2013-10-31 03:16:00,
2013-10-30 23:20:00,43.9,39.1,30.19,SSE,151,0.0,0.0,83,0.00,,,0.00,VWS V14.01,2013-10-31 03:20:00,
2013-10-30 23:21:00,43.7,38.9,30.19,SSE,151,0.0,0.0,83,0.00,,,0.00,VWS V14.01,2013-10-31 03:21:00,
2013-10-30 23:25:00,43.7,38.9,30.19,SSE,151,0.0,0.0,83,0.00,,,0.00,VWS V14.01,2013-10-31 03:25:00,
2013-10-30 23:26:00,43.3,38.5,30.19,SSE,151,0.0,0.0,83,0.00,,,0.00,VWS V14.01,2013-10-31 03:26:00,
2013-10-30 23:30:00,43.7,38.9,30.19,SSE,151,0.0,0.0,83,0.00,,,0.00,VWS V14.01,2013-10-31 03:30:00,
2013-10-30 23:31:00,43.3,38.5,30.19,SSE,151,0.0,0.0,83,0.00,,,0.00,VWS V14.01,2013-10-31 03:31:00,
2013-10-30 23:35:00,43.7,38.9,30.19,SSE,151,0.0,0.0,83,0.00,,,0.00,VWS V14.01,2013-10-31 03:35:00,
2013-10-30 23:36:00,43.5,38.7,30.19,SSE,151,0.0,0.0,83,0.00,,,0.00,VWS V14.01,2013-10-31 03:36:00,
2013-10-30 23:40:00,43.5,38.7,30.19,SSE,151,0.0,0.0,83,0.00,,,0.00,VWS V14.01,2013-10-31 03:40:00,
2013-10-30 23:41:00,43.7,39.2,30.19,SSE,151,0.0,0.0,84,0.00,,,0.00,VWS V14.01,2013-10-31 03:41:00,
2013-10-30 23:45:00,43.7,38.9,30.19,SSE,151,0.0,0.0,83,0.00,,,0.00,VWS V14.01,2013-10-31 03:45:00,
2013-10-30 23:46:00,43.7,39.2,30.19,SSE,151,0.0,0.0,84,0.00,,,0.00,VWS V14.01,2013-10-31 03:46:00,
2013-10-30 23:50:00,43.7,38.9,30.19,SSE,151,0.0,0.0,83,0.00,,,0.00,VWS V14.01,2013-10-31 03:50:00,
2013-10-30 23:51:00,43.9,39.4,30.19,SSE,151,0.0,0.0,84,0.00,,,0.00,VWS V14.01,2013-10-31 03:51:00,
2013-10-30 23:55:00,43.7,38.9,30.19,SSE,151,0.0,0.0,83,0.00,,,0.00,VWS V14.01,2013-10-31 03:55:00,
2013-10-30 23:56:00,44.1,39.5,30.19,SSE,151,0.0,0.0,84,0.00,,,0.00,VWS V14.01,2013-10-31 03:56:00,